Date_and_time,latitude,longitude,wind_speed,RelWindDirFrom,WindDirFrom,air_pressure,air_temperature,relative_humidity,Temp,platform_speed_wrt_ground,air_pressure_at_mean_sea_level,platform_orientation
2019-05-02 23:30,50.63042,-96.98077,9.2,10.1,62,988.55,3.8,89,5.37,0.0,1016.08,270.0
2019-05-02 23:40,50.6304166666667,-96.9807716666667,9.2,10.4,61,988.47,3.7,90,5.36,0.0,1016.00,270.0
2019-05-02 23:50,50.6304233333333,-96.980775,10.0,10.9,62,988.36,3.6,89,5.36,0.0,1015.90,270.0
2019-05-03 00:00,50.63043,-96.9807616666667,10.5,11.4,63,988.28,3.7,86,5.37,0.0,1015.81,165.5
2019-05-03 00:10,50.630435,-96.9807883333333,10.7,12.0,63,988.21,3.9,82,5.38,0.0,1015.71,165.5
2019-05-03 00:20,50.63044,-96.9807883333333,11.4,12.7,64,988.10,4.0,78,5.38,0.0,1015.61,165.5
2019-05-03 00:30,50.6304383333333,-96.980785,11.9,12.9,63,988.05,4.3,72,5.38,0.0,1015.53,165.5
2019-05-03 00:40,50.63044,-96.9807783333333,11.3,12.4,63,988.06,4.4,72,5.38,0.0,1015.53,165.5
2019-05-03 00:50,50.6304666666667,-96.980775,10.7,11.6,66,988.12,3.9,76,5.37,0.0,1015.61,165.5
2019-05-03 01:00,50.6304266666667,-96.9807783333333,10.4,11.6,65,988.12,3.5,77,5.36,0.0,1015.63,194.5
2019-05-03 01:10,50.6304333333333,-96.9807833333333,10.3,11.4,66,988.14,3.4,76,5.36,0.0,1015.65,194.5
2019-05-03 01:20,50.6304383333333,-96.980795,10.6,11.7,66,988.14,3.6,74,5.36,0.0,1015.63,194.5
2019-05-03 01:30,50.6304416666667,-96.9807716666667,9.3,10.2,68,988.25,3.4,75,5.37,0.0,1015.76,194.5
2019-05-03 01:40,50.630455,-96.9807933333333,9.4,10.5,68,988.26,3.1,78,5.40,0.0,1015.79,194.5
2019-05-03 01:50,50.6304416666667,-96.98081,9.6,10.7,68,988.23,3.1,76,5.43,0.0,1015.76,194.5
2019-05-03 02:00,50.6304316666667,-96.9807783333333,9.0,9.9,69,988.23,3.0,77,5.45,0.0,1015.75,293.6
2019-05-03 02:10,50.63045,-96.9807533333333,8.2,9.3,75,988.28,2.9,76,5.45,0.0,1015.80,293.6
2019-05-03 02:20,50.630445,-96.9807683333333,5.1,7.0,91,988.37,3.1,73,5.47,0.0,1015.86,293.6
2019-05-03 02:30,50.630445,-96.9807733333333,4.2,5.4,90,988.41,3.1,73,5.50,0.0,1015.91,293.6
2019-05-03 02:40,50.6304416666667,-96.98077,3.7,5.5,86,988.46,2.7,75,5.51,0.0,1016.00,293.6
2019-05-03 02:50,50.6304366666667,-96.9807633333333,5.2,6.1,89,988.49,2.4,77,5.52,0.0,1016.07,293.6
2019-05-03 03:00,50.63044,-96.9807716666667,6.0,6.9,95,988.46,2.2,79,5.53,0.0,1016.05,356.8
2019-05-03 03:10,50.6304366666667,-96.98076,7.9,8.8,99,988.42,2.0,82,5.52,0.0,1016.01,356.8
2019-05-03 03:20,50.63044,-96.9807583333333,7.5,9.1,113,988.41,2.3,80,5.52,0.0,1015.99,356.8
2019-05-03 03:30,50.63046,-96.9807816666667,4.9,7.0,121,988.43,2.2,82,5.52,0.0,1016.04,356.8
2019-05-03 03:40,50.630455,-96.9807833333333,4.5,6.5,123,988.45,1.9,85,5.51,0.0,1016.08,356.8
2019-05-03 03:50,50.6304416666667,-96.9807683333333,2.8,5.1,159,988.41,1.2,92,5.51,0.0,1016.07,356.8
2019-05-03 04:00,50.630445,-96.98078,3.6,5.1,163,988.36,1.3,96,5.52,0.0,1016.02,18.9
2019-05-03 04:10,50.6304433333333,-96.9807766666667,6.4,11.1,143,988.31,2.1,93,5.53,0.0,1015.92,18.9
2019-05-03 04:20,50.630455,-96.9807816666667,7.0,9.3,136,988.19,2.6,92,5.55,0.0,1015.78,18.9
2019-05-03 04:30,50.6304466666667,-96.980765,6.8,9.3,131,988.14,2.6,94,5.61,0.0,1015.74,18.9
2019-05-03 04:40,50.630455,-96.9807716666667,7.2,10.1,142,988.09,2.5,93,5.69,0.0,1015.71,18.9
2019-05-03 04:50,50.63045,-96.9807683333333,8.8,13.7,130,988.03,2.9,92,5.71,0.0,1015.64,18.9
2019-05-03 05:00,50.6304483333333,-96.9807716666667,7.5,12.2,140,988.03,2.9,92,5.70,0.0,1015.65,32.5
2019-05-03 05:10,50.630445,-96.9807683333333,8.7,12.8,129,988.02,2.9,95,5.68,0.0,1015.62,32.5
2019-05-03 05:20,50.6304433333333,-96.980775,10.1,13.2,132,987.99,3.1,93,5.66,0.0,1015.59,32.5
2019-05-03 05:30,50.63044,-96.9807733333333,9.2,13.5,124,987.92,2.9,98,5.62,0.0,1015.53,32.5
2019-05-03 05:40,50.6304333333333,-96.9807666666667,11.1,13.9,120,987.86,2.8,99,5.58,0.0,1015.52,32.5
2019-05-03 05:50,50.6304366666667,-96.9807666666667,10.2,14.1,128,987.76,2.7,99,5.56,0.0,1015.42,32.5
2019-05-03 06:00,50.6304433333333,-96.98077,7.5,11.3,137,987.75,2.7,99,5.53,0.0,1015.36,90.0
2019-05-03 06:10,50.6304433333333,-96.9807716666667,5.8,8.7,162,987.78,2.1,99,5.53,0.0,1015.40,90.0
2019-05-03 06:20,50.63044,-96.9807716666667,6.9,8.5,156,987.72,2.3,100,5.54,0.0,1015.33,90.0
2019-05-03 06:30,50.6304383333333,-96.9807716666667,5.3,6.9,151,987.76,2.2,100,5.53,0.0,1015.38,90.0
2019-05-03 06:40,50.6304383333333,-96.9807716666667,6.1,9.0,161,987.77,2.2,100,5.52,0.0,1015.37,90.0
2019-05-03 06:50,50.6304383333333,-96.9807716666667,7.5,9.1,163,987.66,2.4,100,5.48,0.0,1015.25,90.0
2019-05-03 07:00,50.6304383333333,-96.9807716666667,7.5,8.6,160,987.54,2.3,100,5.44,0.0,1015.13,90.0
2019-05-03 07:10,50.6304483333333,-96.9807766666667,6.8,8.0,156,987.44,2.2,100,5.43,0.0,1015.02,90.0
2019-05-03 07:20,50.6304533333333,-96.98078,7.9,9.9,148,987.34,2.1,100,5.44,0.0,1014.93,90.0
2019-05-03 07:30,50.6304483333333,-96.9807716666667,6.7,8.1,146,987.29,2.0,100,5.45,0.0,1014.89,90.0
2019-05-03 07:40,50.6304483333333,-96.9807733333333,7.9,9.0,144,987.19,2.0,100,5.45,0.0,1014.79,90.0
2019-05-03 07:50,50.6304483333333,-96.9807716666667,7.3,8.9,141,987.08,2.0,100,5.40,0.0,1014.68,90.0
2019-05-03 08:00,50.630435,-96.980755,7.9,9.2,144,987.02,1.8,100,5.36,0.0,1014.66,143.4
2019-05-03 08:10,50.630435,-96.9807633333333,8.7,10.2,147,987.00,2.0,100,5.36,0.0,1014.61,143.4
2019-05-03 08:20,50.630435,-96.98076,8.7,10.8,151,986.98,2.2,100,5.37,0.0,1014.59,143.4
2019-05-03 08:30,50.630435,-96.9807616666667,8.3,10.6,152,986.94,2.3,100,5.38,0.0,1014.54,143.4
2019-05-03 08:40,50.630435,-96.9807633333333,8.1,9.4,148,986.94,2.2,100,5.39,0.0,1014.54,143.4
2019-05-03 08:50,50.6304383333333,-96.9807683333333,8.2,10.1,149,986.87,2.2,100,5.40,0.0,1014.48,143.4
2019-05-03 09:00,50.630445,-96.9807683333333,7.5,9.5,152,986.77,2.1,100,5.41,0.0,1014.39,0.0
2019-05-03 09:10,50.6304483333333,-96.9807666666667,7.6,9.1,152,986.65,2.0,100,5.42,0.0,1014.26,0.0
2019-05-03 09:20,50.630445,-96.98077,9.3,10.7,146,986.50,2.1,100,5.41,0.0,1014.11,0.0
2019-05-03 09:30,50.630445,-96.980765,8.7,10.2,144,986.41,2.2,100,5.40,0.0,1014.02,0.0
2019-05-03 09:40,50.63043,-96.98077,9.2,10.5,143,986.27,2.1,100,5.37,0.0,1013.87,0.0
2019-05-03 09:50,50.6304333333333,-96.98077,9.5,11.8,133,986.00,2.5,99,5.36,0.0,1013.59,0.0
2019-05-03 10:00,50.6304383333333,-96.9807683333333,9.5,11.5,147,985.96,2.5,99,5.36,0.0,1013.54,90.0
2019-05-03 10:10,50.6304366666667,-96.9807683333333,8.0,10.2,154,985.94,2.3,100,5.37,0.0,1013.52,90.0
2019-05-03 10:20,50.6304366666667,-96.9807683333333,7.8,9.5,146,985.76,2.1,100,5.37,0.0,1013.34,90.0
2019-05-03 10:30,50.6304366666667,-96.9807666666667,8.3,9.7,148,985.61,2.3,100,5.40,0.0,1013.19,90.0
2019-05-03 10:40,50.6304383333333,-96.9807666666667,9.6,12.3,145,985.53,2.3,100,5.41,0.0,1013.10,90.0
2019-05-03 10:50,50.6304383333333,-96.9807666666667,11.1,12.7,142,985.47,2.4,100,5.42,0.0,1013.03,90.0
2019-05-03 11:00,50.6304383333333,-96.9807666666667,10.8,13.3,146,985.49,2.5,100,5.42,0.0,1013.06,347.4
2019-05-03 11:10,50.63044,-96.9807666666667,8.8,10.4,150,985.56,2.3,100,5.42,0.0,1013.13,347.4
2019-05-03 11:20,50.63044,-96.9807666666667,8.8,9.9,162,985.68,2.5,100,5.42,0.0,1013.24,347.4
2019-05-03 11:30,50.63044,-96.9807666666667,9.6,12.3,148,985.52,2.9,99,5.42,0.0,1013.06,347.4
2019-05-03 11:40,50.63044,-96.9807666666667,10.3,12.2,150,985.42,2.9,99,5.37,0.0,1012.94,347.4
2019-05-03 11:50,50.6304416666667,-96.9807666666667,11.4,13.1,148,985.44,3.1,99,5.36,0.0,1012.95,347.4
2019-05-03 12:00,50.6304416666667,-96.9807666666667,11.3,17.8,155,985.44,3.3,99,5.36,0.0,1012.94,0.0
2019-05-03 12:10,50.6304416666667,-96.9807666666667,10.7,13.1,159,985.41,4.1,98,5.39,0.0,1012.89,0.0
2019-05-03 12:20,50.6304416666667,-96.9807666666667,9.2,11.4,162,985.44,3.6,99,5.40,0.0,1012.94,0.0
2019-05-03 12:30,50.6304416666667,-96.9807666666667,6.6,10.9,159,985.33,3.9,100,5.25,0.0,1012.81,0.0
2019-05-03 12:40,50.6304433333333,-96.9807666666667,7.3,9.7,149,985.25,4.1,100,5.09,0.0,1012.71,0.0
2019-05-03 12:50,50.6304433333333,-96.9807666666667,8.4,10.1,142,985.17,4.0,100,4.93,0.0,1012.63,0.0
2019-05-03 13:00,50.6304566666667,-96.9807783333333,10.5,14.6,160,985.10,4.5,100,4.87,0.0,1012.54,304.8
2019-05-03 13:10,50.6304483333333,-96.9807733333333,10.3,13.7,154,984.98,4.5,100,4.94,0.0,1012.40,304.8
2019-05-03 13:20,50.6304483333333,-96.980775,11.2,12.8,147,984.81,3.7,100,5.05,0.0,1012.25,304.8
2019-05-03 13:30,50.6304466666667,-96.9807766666667,11.7,13.5,149,984.67,3.2,100,5.07,0.0,1012.14,304.8
2019-05-03 13:40,50.6304466666667,-96.980775,10.7,13.4,155,984.58,3.1,100,5.00,0.0,1012.03,304.8
2019-05-03 13:50,50.6304483333333,-96.980775,11.1,13.4,160,984.54,3.2,101,4.94,0.0,1011.98,304.8
2019-05-03 14:00,50.6304483333333,-96.9807733333333,12.0,14.1,161,984.61,3.5,101,5.03,0.0,1012.00,311.7
2019-05-03 14:10,50.6304466666667,-96.9807683333333,12.6,16.0,159,984.59,4.0,101,4.92,0.0,1011.98,311.7
2019-05-03 14:20,50.6304383333333,-96.98078,12.8,15.8,154,984.44,4.1,101,4.85,0.0,1011.80,311.7
2019-05-03 14:30,50.6304433333333,-96.98078,13.0,15.5,151,984.33,3.9,101,5.01,0.0,1011.69,311.7
2019-05-03 14:40,50.6304416666667,-96.9808033333333,12.3,14.7,152,984.26,4.0,101,4.95,0.0,1011.61,311.7
2019-05-03 14:50,50.6304216666667,-96.9807383333333,13.5,18.9,158,984.23,4.4,101,4.90,0.0,1011.54,311.7
2019-05-03 15:00,50.630435,-96.9807566666667,14.1,18.2,161,984.22,5.4,101,5.01,0.0,1011.48,131.7
2019-05-03 15:10,50.6304383333333,-96.9807633333333,13.9,18.3,168,984.25,5.9,100,5.13,0.0,1011.53,131.7
2019-05-03 15:20,50.63044,-96.9807666666667,16.4,20.7,174,984.08,6.4,100,5.13,0.0,1011.35,131.7
2019-05-03 15:30,50.6304383333333,-96.9807683333333,15.7,22.1,173,984.07,6.4,100,5.01,0.0,1011.35,131.7
2019-05-03 15:40,50.63044,-96.9807683333333,18.9,24.9,178,983.99,6.5,100,5.05,0.0,1011.25,131.7
2019-05-03 15:50,50.63044,-96.98077,14.2,19.8,179,984.11,6.5,100,5.14,0.0,1011.37,131.7
2019-05-03 16:00,50.63044,-96.98077,12.8,20.3,173,984.10,6.6,100,5.15,0.0,1011.32,124.8
2019-05-03 16:10,50.6304683333333,-96.9808333333333,8.5,10.8,158,984.19,5.6,100,5.14,0.0,1011.46,124.8
2019-05-03 16:20,50.6304466666667,-96.9807783333333,9.1,13.7,163,984.19,5.4,100,5.10,0.0,1011.47,124.8
2019-05-03 16:30,50.630435,-96.9807933333333,12.0,19.7,184,984.15,6.2,100,5.12,0.0,1011.39,124.8
2019-05-03 16:40,50.6304433333333,-96.98078,14.2,20.0,195,984.20,7.8,99,5.16,0.0,1011.35,124.8
2019-05-03 16:50,50.6304483333333,-96.9807816666667,18.0,22.6,180,984.02,7.6,99,5.23,0.0,1011.13,124.8
2019-05-03 17:00,50.6304433333333,-96.9807766666667,16.6,20.7,179,983.94,7.9,99,5.27,0.0,1011.00,360.0
2019-05-03 17:10,50.6304416666667,-96.9807733333333,16.0,20.9,174,983.87,7.7,99,5.24,0.0,1010.92,360.0
2019-05-03 17:20,50.63044,-96.9807733333333,16.1,20.8,173,983.83,7.5,99,5.22,0.0,1010.88,360.0
2019-05-03 17:30,50.6304383333333,-96.9807733333333,12.4,18.1,169,983.92,7.2,99,5.25,0.0,1010.99,360.0
2019-05-03 17:40,50.6304383333333,-96.9807733333333,10.5,13.8,152,983.94,5.1,100,5.27,0.0,1011.11,360.0
2019-05-03 17:50,50.63044,-96.9807716666667,12.1,13.5,144,983.85,5.2,100,5.29,0.0,1011.00,360.0
2019-05-03 18:00,50.63044,-96.9807733333333,11.4,13.4,146,983.78,5.3,100,5.31,0.0,1010.98,305.3
2019-05-03 18:10,50.63043,-96.9807883333333,10.4,14.4,157,983.73,5.8,100,5.33,0.0,1010.92,305.3
2019-05-03 18:20,50.6304333333333,-96.98079,13.8,20.1,175,983.55,7.0,99,5.34,0.0,1010.63,305.3
2019-05-03 18:30,50.6304383333333,-96.980785,14.4,20.1,184,983.56,8.8,94,5.35,0.0,1010.47,305.3
2019-05-03 18:40,50.6304366666667,-96.98078,15.3,19.4,175,983.42,9.0,91,5.36,0.0,1010.33,305.3
2019-05-03 18:50,50.630435,-96.98078,14.9,19.2,178,983.40,9.2,88,5.38,0.0,1010.29,305.3
2019-05-03 19:00,50.6304366666667,-96.9807783333333,15.2,20.5,181,983.36,9.2,87,5.39,0.0,1010.25,246.4
2019-05-03 19:10,50.6304383333333,-96.9807766666667,15.0,19.3,174,983.28,9.2,86,5.41,0.0,1010.19,246.4
2019-05-03 19:20,50.6304383333333,-96.980775,14.6,18.2,181,983.25,9.4,83,5.44,0.0,1010.15,246.4
2019-05-03 19:30,50.6304383333333,-96.9807733333333,12.2,16.0,149,983.28,7.9,90,5.45,0.0,1010.36,246.4
2019-05-03 19:40,50.6304383333333,-96.9807716666667,14.0,16.0,143,983.14,5.8,99,5.47,0.0,1010.31,246.4
2019-05-03 19:50,50.6304383333333,-96.98077,11.9,15.7,150,983.11,5.1,100,5.49,0.0,1010.32,246.4
2019-05-03 20:00,50.63044,-96.98077,15.6,17.3,141,982.99,5.6,100,5.51,0.0,1010.15,90.0
2019-05-03 20:10,50.63042,-96.9807583333333,12.0,15.8,149,983.11,5.2,100,5.51,0.0,1010.23,90.0
2019-05-03 20:20,50.6304283333333,-96.9807566666667,14.8,17.9,148,983.05,5.3,100,5.51,0.0,1010.07,90.0
2019-05-03 20:30,50.630435,-96.9807616666667,16.7,19.7,145,982.93,5.8,100,5.51,0.0,1009.91,90.0
2019-05-03 20:40,50.630435,-96.9807583333333,16.6,19.3,144,982.88,6.0,100,5.52,0.0,1009.84,90.0
2019-05-03 20:50,50.6304366666667,-96.9807616666667,17.2,19.8,143,982.79,6.1,100,5.52,0.0,1009.74,90.0
2019-05-03 21:00,50.6304383333333,-96.9807633333333,16.6,18.7,143,982.80,6.0,100,5.51,0.0,1009.76,90.0
2019-05-03 21:10,50.6304416666667,-96.9807666666667,14.7,16.5,144,982.74,5.6,100,5.53,0.0,1009.71,90.0
2019-05-03 21:20,50.6304433333333,-96.9807833333333,13.3,15.6,146,982.77,5.4,100,5.53,0.0,1009.82,90.0
2019-05-03 21:30,50.6304266666667,-96.9807716666667,14.7,17.2,149,982.60,5.8,100,5.48,0.0,1009.73,90.0
2019-05-03 21:40,50.6304433333333,-96.98083,12.4,16.1,150,982.63,6.1,100,5.51,0.0,1009.78,90.0
2019-05-03 21:50,50.6304466666667,-96.9807566666667,15.1,16.9,143,982.61,6.4,100,5.56,0.0,1009.72,90.0
2019-05-03 22:00,50.6304383333333,-96.9807666666667,14.1,16.0,142,982.60,6.1,100,5.57,0.0,1009.75,66.4
2019-05-03 22:10,50.6304383333333,-96.98081,11.4,15.2,134,982.67,5.8,100,5.57,0.0,1009.83,66.4
2019-05-03 22:20,50.6304416666667,-96.9807716666667,9.8,12.7,130,982.58,5.1,100,5.55,0.0,1009.74,66.4
2019-05-03 22:30,50.630445,-96.9807666666667,11.1,14.6,141,982.51,5.4,100,5.51,0.0,1009.66,66.4
2019-05-03 22:40,50.630445,-96.980765,13.9,15.6,141,982.40,6.5,100,5.51,0.0,1009.48,66.4
2019-05-03 22:50,50.630445,-96.9807683333333,9.2,13.7,136,982.48,5.9,100,5.49,0.0,1009.59,66.4
2019-05-03 23:00,50.630445,-96.9807683333333,9.4,12.5,130,982.46,5.7,100,5.43,0.0,1009.61,90.0
2019-05-03 23:10,50.630465,-96.9807866666667,11.9,14.5,128,982.38,6.7,99,5.40,0.0,1009.48,90.0
2019-05-03 23:20,50.6304316666667,-96.9807733333333,8.8,11.3,103,982.40,6.0,100,5.40,0.0,1009.52,90.0
2019-05-03 23:30,50.6304316666667,-96.9807666666667,10.1,11.7,113,982.32,4.9,100,5.48,0.0,1009.47,90.0
2019-05-03 23:40,50.630435,-96.9807683333333,8.0,12.4,125,982.25,5.1,100,5.51,0.0,1009.38,90.0
